Flag Weather past 2 weeks in Qaanaaq, Greenland

Now
28 °F

Partly cloudy.


Feels Like: 15 °F
Forecast: 10 / 19 °F
Wind: 21 mph from Southeast

Location: Thule A. B.

Current Time: Oct 30, 2014 at 9:29:01 AM

Latest Report: Oct 30, 2014 at 8:58 AM


Visibility: N/A

Pressure: 29.73 "Hg

Humidity: 69%

Dew point: 19 °F

Location of QaanaaqLocation

Historic Weather in Qaanaaq — Graph

°F

Qaanaaq temperature yesterday

Maximum temperature yesterday: 23 °F (at 11:58 PM)
Minimum temperature yesterday: 5 °F (at 1:58 AM)
Average temperature yesterday: 13 °F

Past Weeks' High & Low Weather Summary

 TemperatureHumidityPressure
High27 °F (Oct 15, 8:58 AM)93% (Oct 15, 8:58 AM)30.14 "Hg (Oct 15, 8:58 AM)
Low1 °F (Oct 25, 11:58 AM)35% (Oct 24, 10:58 AM)29.40 "Hg (Oct 22, 11:58 PM)
Average13 °F76%29.78 "Hg
* Reported Oct 15 8:58 AM — Oct 30 7:58 AM, Qaanaaq, Weather by CustomWeather, © 2014

Note: Actual official high and low records may vary slightly from our data, if they occured in-between our weather recording intervals... More about our weather records

Advertising

Qaanaaq weather history for previous 24 hours

 ConditionsComfort  
Time TempWeatherWind HumidityBarometerVisibility
7:58 AM
Oct 30
27 °FMostly cloudy.8 mph69%29.74 "HgN/A
6:58 AM27 °FMostly cloudy.12 mph69%29.74 "HgN/A
5:58 AM27 °FMostly cloudy.16 mph69%29.75 "HgN/A
4:58 AM27 °FClear.13 mph64%29.75 "HgN/A
3:58 AM25 °FPassing clouds.14 mph74%29.75 "HgN/A
2:58 AM25 °FPassing clouds.10 mph69%29.76 "HgN/A
1:58 AM23 °FPassing clouds.10 mph80%29.76 "HgN/A
12:58 AM23 °FPartly cloudy.21 mph74%29.77 "HgN/A
11:58 PM
Oct 29
23 °FMostly cloudy.18 mph74%29.79 "HgN/A
10:58 PM21 °FPassing clouds.17 mph74%29.80 "HgN/A
9:58 PM21 °FPassing clouds.17 mph74%29.81 "HgN/A
8:58 PM21 °FClear.13 mph68%29.83 "HgN/A
7:58 PM19 °FMostly cloudy.13 mph79%29.83 "HgN/A
7:04 PM16 °FLight snow. Mostly cloudy.5 mph86%29.87 "HgN/A
5:58 PM10 °FPartly cloudy.9 mph92%29.84 "HgN/A
4:58 PM10 °FPassing clouds.6 mph92%29.85 "HgN/A
3:58 PM10 °FSunny.6 mph85%29.85 "HgN/A
2:58 PM14 °FSunny.6 mph92%29.84 "HgN/A
2:03 PM14 °FIce fog.8 mph92%29.88 "Hg5 mi
1:59 PM14 °FLight snow. Ice fog.8 mph92%29.88 "Hg5 mi
12:58 PM16 °FClear.9 mph86%29.85 "HgN/A
11:59 AM12 °FIce fog.10 mph92%29.89 "Hg6 mi
11:58 AM12 °FIce fog.10 mph92%29.86 "Hg6 mi
10:58 AM14 °FPassing clouds.9 mph92%29.87 "HgN/A
9:58 AM14 °FClear.9 mph85%29.88 "HgN/A
Weather by CustomWeather, © 2014

See weather overviewHow to use our weather pages